Weather History for Perry, FL

Change the Weather History Date:

Sunday, March 3, 2013

  Actual Average (KCTY) Record (KCTY)
Temperature  
Mean Temperature 40 °F 60 °F  
Max Temperature 50 °F 74 °F 84 °F (2002)
Min Temperature 30 °F 46 °F 28 °F (2009)
Degree Days  
Heating Degree Days 25 6  
Month to date heating degree days 20  
Since 1 July heating degree days 1140  
Cooling Degree Days 0 1  
Month to date cooling degree days 3  
Year to date cooling degree days 30  
Moisture  
Dew Point 24 °F    
Average Humidity 57    
Maximum Humidity 87    
Minimum Humidity 20    
Precipitation  
Precipitation 0.00 in 0.13 in 0.32 in (2003)
Month to date precipitation 0.36  
Year to date precipitation 7.67  
Sea Level Pressure  
Sea Level Pressure 30.10 in    
Wind  
Wind Speed 5 mph (WNW)    
Max Wind Speed 14 mph    
Max Gust Speed 21 mph    
Visibility 10 miles    
Events      
T = Trace of Precipitation, MM = Missing Value Source: NWS Daily Summary

Daily Weather History Graph

Daily Weather History Graph

Search for Another Location

Airport:

Trip Planner

Search our weather history database for the weather conditions in past years. The results will help you decide how hot, cold, wet, or windy it might be!

Date:

Astronomy

Mar. 03, 2013 Rise Set
Actual Time 6:57 AM EST 6:34 PM EST
Civil Twilight 6:33 AM EST 6:58 PM EST
Nautical Twilight 6:06 AM EST 7:26 PM EST
Astronomical Twilight 5:38 AM EST 7:54 PM EST
Moon No Moon Rise 10:40 AM EST (3/3)
Length of Visible Light 12h 25m
Length of Day
11h 37m
Waning Gibbous, 64% of the Moon is Illuminated
Mar 3
Waning Gibbous
Mar 4
Last Quarter
Mar 11
New
Mar 19
First Quarter
Mar 27
Full

Hourly Weather History & Observations

Time (EST) Temp. Windchill Dew Point Humidity Pressure Visibility Wind Dir Wind Speed Gust Speed Precip Events Conditions
12:15 AM 37.4 °F 34.9 °F 26.6 °F 65% 30.07 in 10.0 mi NNW 3.5 mph - N/A   Clear
12:35 AM 35.6 °F 32.8 °F 24.8 °F 65% 30.07 in 10.0 mi WNW 3.5 mph - N/A   Clear
12:53 AM 32.0 °F 28.7 °F 26.1 °F 79% 30.06 in - West 3.5 mph - N/A   Unknown
12:55 AM 32.0 °F 28.7 °F 24.8 °F 75% 30.07 in 10.0 mi WNW 3.5 mph - N/A   Clear
1:15 AM 33.8 °F - 26.6 °F 75% 30.07 in 10.0 mi Calm Calm - N/A   Clear
1:35 AM 33.8 °F 29.6 °F 26.6 °F 75% 30.08 in 10.0 mi NW 4.6 mph - N/A   Clear
1:53 AM 32.0 °F 28.7 °F 26.1 °F 79% 30.07 in - West 3.5 mph - N/A   Unknown
1:55 AM 33.8 °F 30.8 °F 26.6 °F 75% 30.08 in 10.0 mi WNW 3.5 mph - N/A   Clear
2:15 AM 33.8 °F 29.6 °F 28.4 °F 81% 30.08 in 10.0 mi WNW 4.6 mph - N/A   Clear
2:35 AM 32.0 °F 27.5 °F 26.6 °F 80% 30.08 in 10.0 mi WNW 4.6 mph - N/A   Clear
2:53 AM 30.9 °F 26.2 °F 26.1 °F 82% 30.07 in - WNW 4.6 mph - N/A   Unknown
2:55 AM 33.8 °F 29.6 °F 28.4 °F 81% 30.08 in 10.0 mi NW 4.6 mph - N/A   Clear
3:15 AM 32.0 °F 27.5 °F 26.6 °F 80% 30.08 in 10.0 mi WNW 4.6 mph - N/A   Clear
3:35 AM 32.0 °F 28.7 °F 26.6 °F 80% 30.07 in 10.0 mi WNW 3.5 mph - N/A   Scattered Clouds
3:53 AM 32.0 °F - 27.0 °F 82% 30.06 in - Calm Calm - N/A   Unknown
3:55 AM 32.0 °F 28.7 °F 28.4 °F 87% 30.07 in 10.0 mi WNW 3.5 mph - N/A   Mostly Cloudy
4:15 AM 33.8 °F 28.6 °F 30.2 °F 87% 30.07 in 10.0 mi WNW 5.8 mph - N/A   Overcast
4:35 AM 33.8 °F 30.8 °F 28.4 °F 81% 30.07 in 10.0 mi WNW 3.5 mph - N/A   Overcast
4:53 AM 34.0 °F 31.0 °F 28.0 °F 79% 30.06 in - WNW 3.5 mph - N/A   Unknown
4:55 AM 33.8 °F 30.8 °F 28.4 °F 81% 30.07 in 10.0 mi WNW 3.5 mph - N/A   Overcast
5:35 AM 35.6 °F 32.8 °F 30.2 °F 81% 30.08 in 10.0 mi WNW 3.5 mph - N/A   Overcast
5:53 AM 36.0 °F 31.1 °F 30.0 °F 79% 30.08 in - West 5.8 mph - N/A   Unknown
5:55 AM 35.6 °F 31.7 °F 30.2 °F 81% 30.09 in 10.0 mi West 4.6 mph - N/A   Overcast
6:15 AM 37.4 °F 32.8 °F 30.2 °F 75% 30.09 in 10.0 mi West 5.8 mph - N/A   Overcast
6:35 AM 37.4 °F 32.8 °F 30.2 °F 75% 30.09 in 10.0 mi West 5.8 mph - N/A   Overcast
6:53 AM 37.0 °F 34.5 °F 30.9 °F 79% 30.08 in - West 3.5 mph - N/A   Unknown
6:55 AM 37.4 °F 34.9 °F 30.2 °F 75% 30.09 in 10.0 mi West 3.5 mph - N/A   Overcast
7:15 AM 37.4 °F 33.8 °F 30.2 °F 75% 30.09 in 10.0 mi WNW 4.6 mph - N/A   Overcast
7:35 AM 37.4 °F 32.8 °F 30.2 °F 75% 30.10 in 10.0 mi WNW 5.8 mph - N/A   Overcast
7:53 AM 39.0 °F 32.8 °F 30.0 °F 70% 30.10 in - West 9.2 mph - N/A   Unknown
7:55 AM 39.2 °F 34.2 °F 28.4 °F 65% 30.11 in 10.0 mi WNW 6.9 mph - N/A   Overcast
8:15 AM 39.2 °F 34.2 °F 26.6 °F 61% 30.11 in 10.0 mi WNW 6.9 mph - N/A   Overcast
8:35 AM 41.0 °F 34.3 °F 26.6 °F 57% 30.12 in 10.0 mi WNW 11.5 mph - N/A   Overcast
8:53 AM 39.9 °F 32.9 °F 28.0 °F 63% 30.12 in - WNW 11.5 mph - N/A   Unknown
8:55 AM 41.0 °F 34.7 °F 26.6 °F 57% 30.13 in 10.0 mi WNW 10.4 mph - N/A   Overcast
9:15 AM 41.0 °F 34.3 °F 24.8 °F 53% 30.13 in 10.0 mi NNW 11.5 mph 17.3 mph N/A   Overcast
9:35 AM 42.8 °F 37.0 °F 24.8 °F 49% 30.13 in 10.0 mi NW 10.4 mph 17.3 mph N/A   Overcast
9:53 AM 42.1 °F 36.1 °F 28.0 °F 58% 30.12 in - NW 10.4 mph - N/A   Unknown
9:55 AM 42.8 °F 37.0 °F 24.8 °F 49% 30.13 in 10.0 mi NW 10.4 mph - N/A   Overcast
10:15 AM 44.6 °F 39.2 °F 23.0 °F 43% 30.13 in 10.0 mi West 10.4 mph - N/A   Overcast
10:35 AM 42.8 °F 36.6 °F 21.2 °F 42% 30.12 in 10.0 mi WNW 11.5 mph 17.3 mph N/A   Overcast
10:53 AM 44.1 °F 38.6 °F 26.1 °F 49% 30.12 in - WNW 10.4 mph - N/A   Unknown
10:55 AM 44.6 °F 38.4 °F 21.2 °F 39% 30.13 in 10.0 mi WNW 12.7 mph - N/A   Overcast
11:15 AM 42.8 °F 37.0 °F 21.2 °F 42% 30.13 in 10.0 mi WNW 10.4 mph - N/A   Overcast
11:35 AM 44.6 °F 38.8 °F 21.2 °F 39% 30.13 in 10.0 mi West 11.5 mph - N/A   Overcast
11:53 AM 43.0 °F 36.8 °F 24.1 °F 47% 30.12 in - West 11.5 mph - N/A   Unknown
11:55 AM 42.8 °F 37.5 °F 19.4 °F 39% 30.12 in 10.0 mi West 9.2 mph - N/A   Overcast
12:35 PM 44.6 °F 39.2 °F 17.6 °F 34% 30.11 in 10.0 mi WNW 10.4 mph 17.3 mph N/A   Overcast
12:53 PM 44.1 °F 38.6 °F 24.1 °F 45% 30.09 in - WNW 10.4 mph - N/A   Unknown
12:55 PM 44.6 °F 38.8 °F 17.6 °F 34% 30.10 in 10.0 mi WNW 11.5 mph 17.3 mph N/A   Overcast
1:15 PM 44.6 °F 39.7 °F 17.6 °F 34% 30.09 in 10.0 mi NNW 9.2 mph 16.1 mph N/A   Overcast
1:35 PM 44.6 °F 38.8 °F 17.6 °F 34% 30.09 in 10.0 mi WNW 11.5 mph 18.4 mph N/A   Overcast
1:53 PM 46.0 °F 41.0 °F 24.1 °F 42% 30.07 in - WNW 10.4 mph - N/A   Unknown
1:55 PM 46.4 °F 41.1 °F 15.8 °F 29% 30.08 in 10.0 mi NW 11.5 mph - N/A   Overcast
2:15 PM 46.4 °F 40.4 °F 14.0 °F 27% 30.08 in 10.0 mi WNW 13.8 mph 17.3 mph N/A   Mostly Cloudy
2:35 PM 46.4 °F 41.5 °F 15.8 °F 29% 30.07 in 10.0 mi NNW 10.4 mph 17.3 mph N/A   Scattered Clouds
2:53 PM 48.9 °F - 24.1 °F 38% 30.06 in - NNW 12.7 mph 20.7 mph N/A   Unknown
2:55 PM 50.0 °F - 12.2 °F 22% 30.07 in 10.0 mi NNW 11.5 mph 18.4 mph N/A   Scattered Clouds
3:15 PM 50.0 °F - 12.2 °F 22% 30.07 in 10.0 mi NW 6.9 mph - N/A   Scattered Clouds
3:35 PM 48.2 °F - 12.2 °F 24% 30.07 in 10.0 mi NNW 6.9 mph 17.3 mph N/A   Scattered Clouds
3:53 PM 48.9 °F - 23.0 °F 36% 30.05 in - Variable 3.5 mph - N/A   Unknown
3:55 PM 48.2 °F - 12.2 °F 24% 30.06 in 10.0 mi NNW 4.6 mph - N/A   Clear
4:15 PM 50.0 °F - 10.4 °F 20% 30.05 in 10.0 mi NW 9.2 mph - N/A   Clear
4:53 PM 50.0 °F - 21.9 °F 33% 30.05 in - NW 13.8 mph 17.3 mph N/A   Unknown
4:55 PM 50.0 °F - 10.4 °F 20% 30.05 in 10.0 mi NW 12.7 mph 16.1 mph N/A   Clear
5:15 PM 50.0 °F - 10.4 °F 20% 30.06 in 10.0 mi WNW 10.4 mph - N/A   Clear
5:35 PM 50.0 °F - 12.2 °F 22% 30.07 in 10.0 mi NW 8.1 mph - N/A   Clear
5:53 PM 48.0 °F - 23.0 °F 37% 30.06 in - NW 11.5 mph - N/A   Unknown
5:55 PM 48.2 °F - 12.2 °F 24% 30.08 in 10.0 mi NW 6.9 mph - N/A   Clear
6:15 PM 46.4 °F 42.4 °F 15.8 °F 29% 30.09 in 10.0 mi NW 8.1 mph - N/A   Clear
6:35 PM 44.6 °F 42.2 °F 17.6 °F 34% 30.10 in 10.0 mi NW 4.6 mph - N/A   Clear
6:53 PM 44.1 °F 42.5 °F 25.0 °F 47% 30.10 in - WNW 3.5 mph - N/A   Unknown
6:55 PM 44.6 °F 43.1 °F 19.4 °F 37% 30.11 in 10.0 mi WNW 3.5 mph - N/A   Clear
7:15 PM 42.8 °F 41.1 °F 21.2 °F 42% 30.11 in 10.0 mi WNW 3.5 mph - N/A   Clear
7:35 PM 41.0 °F 38.0 °F 21.2 °F 45% 30.13 in 10.0 mi NW 4.6 mph - N/A   Clear
7:53 PM 37.9 °F - 27.0 °F 65% 30.12 in - Calm Calm - N/A   Unknown
7:55 PM 39.2 °F - 23.0 °F 52% 30.13 in 10.0 mi Calm Calm - N/A   Clear
8:15 PM 35.6 °F - 23.0 °F 60% 30.14 in 10.0 mi Calm Calm - N/A   Clear
8:35 PM 35.6 °F - 24.8 °F 65% 30.14 in 10.0 mi Calm Calm - N/A   Clear
8:53 PM 35.1 °F - 26.1 °F 70% 30.14 in - Calm Calm - N/A   Unknown
8:55 PM 35.6 °F - 24.8 °F 65% 30.15 in 10.0 mi Calm Calm - N/A   Clear
9:15 PM 35.6 °F - 26.6 °F 70% 30.15 in 10.0 mi Calm Calm - N/A   Clear
9:35 PM 33.8 °F - 26.6 °F 75% 30.16 in 10.0 mi Calm Calm - N/A   Clear
9:53 PM 35.1 °F - 27.0 °F 72% 30.15 in - Calm Calm - N/A   Unknown
10:15 PM 33.8 °F - 26.6 °F 75% 30.17 in 10.0 mi Calm Calm - N/A   Clear
10:35 PM 33.8 °F - 28.4 °F 81% 30.18 in 10.0 mi Calm Calm - N/A   Clear
10:53 PM 34.0 °F 29.8 °F 27.0 °F 75% 30.17 in - WNW 4.6 mph - N/A   Unknown
10:55 PM 33.8 °F 28.6 °F 26.6 °F 75% 30.18 in 10.0 mi WNW 5.8 mph - N/A   Clear
11:15 PM 35.6 °F 31.7 °F 24.8 °F 65% 30.18 in 10.0 mi WNW 4.6 mph - N/A   Clear
11:35 PM 35.6 °F 31.7 °F 23.0 °F 60% 30.18 in 10.0 mi WNW 4.6 mph - N/A   Clear
11:53 PM 33.1 °F - 24.1 °F 70% 30.17 in - Calm Calm - N/A   Unknown
11:55 PM 33.8 °F - 23.0 °F 65% 30.18 in 10.0 mi Calm Calm - N/A   Clear